Location: Albuquerque Trailhead
(34.7934°N, 106.3736°W)
Time: 00:30:00
(UTC+00:00)

USA 307 - Pass Details

Date: 20 June 2021
Orbit: 565 x 576 km, 54.0° (Epoch: 17 July)

Event Time Altitude Azimuth Distance (km) Brightness Sun altitude
Exits shadow 08:37:41 39° 353° (N) 865 4.1 -27.9°
Drops below altitude 10° 08:40:53 10° 32° (NNE) 1,866 6.5 -27.7°
Sets 08:43:13 0° 39° (NE) 2,764 7.6 -27.5°
